Weather in Sheya

Russia / Sakha (Yakutia) Republic     62°51′35″N   117°33′04″E
temp.,
°C
wind,
m/s
gust,
m/s
humid.,
%
clouds,
%
prec.,
mm/h
press.,
hPa
HPBL,
m
4 march, thu
thu400:00−36wnw239748 0.0 102723
03:00−36wnw269568 0.0 1028136
06:00−33wnw3793100 0.0 1028303
09:00−33wnw3794100 0.1 1029313
12:00−31w4792100 0.1 1029383
15:00−28w4888100 0.1 1029507
18:00−27w4108798 0.0 1030535
21:00−30w3118960 0.0 1032396
5 march, fri
fri500:00−32w310910 0.0 1034271
03:00−33w37911 0.0 1035144
06:00−35wsw249420 0.0 103570
09:00−35sw259411 0.0 1034105
12:00−26sw25900 0.0 1033399
15:00−22ssw259028 0.0 1031487
18:00−23s239493 0.0 103045
21:00−27s239663 0.0 102919
6 march, sat
sat600:00−28sse239419 0.0 102820
03:00−26sse259551 0.0 1027103
06:00−24sse379397 0.0 1025217
09:00−24sse379096 0.0 1024226
12:00−20sse3596100 0.1 1021309
15:00−16se2493100 0.3 1020393
18:00−16se2495100 0.1 1018277
21:00−17se2497100 0.1 101884
7 march, sun
sun700:00−17se2498100 0.1 1017116
03:00−17se2498100 0.1 1016111
06:00−17se249799 0.1 1015112
09:00−15se379698 0.1 1013215
12:00−10sse3694100 0.1 1011335
15:00−7sse3792100 0.4 1009550
18:00−7sse3795100 0.3 1007386
21:00−7sse2696100 0.4 1006225
8 march, mon
mon800:00−8s1297100 0.4 100453
03:00−9wsw1197100 0.6 100421
06:00−10wnw119797 0.2 100421
09:00−10w129794 0.4 100590
12:00−7w2492100 0.2 1005434
15:00−5w3586100 0.4 1006880
18:00−7wsw269198 0.1 1007230
21:00−12wsw239370 0.1 100923